| Date | Time | Temp. (oF) | Dew Point (oF) | Rel. Hum. (%) | Press. (in.) | Wind Dir. | Wind Speed (mph) | Hourly Rainfall (in.) |
|
|---|---|---|---|---|---|---|---|---|---|
| 1 | 05/04 | 00:00 | 53 | 49 | 88 | 29.73 | SSE | 0 | 0.00 |
| 2 | 05/03 | 23:00 | 54 | 50 | 88 | 29.73 | SSE | 4 | 0.00 |
| 3 | 05/03 | 22:00 | 54 | 50 | 87 | 29.73 | SE | 5 | 0.00 |
| 4 | 05/03 | 21:00 | 56 | 51 | 85 | 29.72 | E | 4 | 0.00 |
| 5 | 05/03 | 20:00 | 57 | 51 | 82 | 29.73 | E | 2 | 0.00 |
| 6 | 05/03 | 19:00 | 59 | 52 | 80 | 29.72 | ESE | 3 | 0.00 |
| 7 | 05/03 | 18:00 | 60 | 53 | 79 | 29.71 | E | 4 | 0.00 |
| 8 | 05/03 | 17:00 | 60 | 53 | 78 | 29.71 | SE | 6 | 0.00 |
| 9 | 05/03 | 16:00 | 58 | 52 | 81 | 29.73 | NE | 3 | 0.00 |
| 10 | 05/03 | 15:00 | 58 | 52 | 83 | 29.74 | E | 1 | 0.00 |
| 11 | 05/03 | 14:00 | 58 | 53 | 85 | 29.74 | ESE | 3 | 0.00 |
| 12 | 05/03 | 13:00 | 58 | 54 | 89 | 29.73 | SE | 6 | 0.00 |
| 13 | 05/03 | 12:00 | 55 | 51 | 89 | 29.75 | ESE | 4 | 0.00 |
| 14 | 05/03 | 11:00 | 54 | 50 | 88 | 29.76 | NE | 5 | 0.00 |
| 15 | 05/03 | 10:00 | 54 | 50 | 88 | 29.74 | ENE | 6 | 0.01 |
| 16 | 05/03 | 09:00 | 55 | 51 | 88 | 29.73 | ENE | 5 | 0.00 |
| 17 | 05/03 | 08:00 | 55 | 51 | 88 | 29.75 | ENE | 3 | 0.02 |
| 18 | 05/03 | 07:00 | 55 | 51 | 88 | 29.74 | E | 2 | 0.00 |
| 19 | 05/03 | 06:00 | 55 | 51 | 88 | 29.74 | ESE | 5 | 0.00 |
| 20 | 05/03 | 05:00 | 56 | 52 | 88 | 29.75 | ENE | 4 | 0.01 |
| 21 | 05/03 | 04:00 | 56 | 52 | 88 | 29.74 | SE | 0 | 0.04 |
| 22 | 05/03 | 03:00 | 56 | 52 | 88 | 29.76 | ENE | 1 | 0.01 |
| 23 | 05/03 | 02:00 | 57 | 53 | 88 | 29.78 | ENE | 0 | 0.06 |
| 24 | 05/03 | 01:00 | 57 | 53 | 88 | 29.80 | ESE | 4 | 0.03 |